Regional Weather Roundup
Issued by NWS

Home | Current Version | Previous Version | Graphics & Text | Print | Product List | Glossary On
Versions: 1 2 3 4 5 6 7 8 9 10 11 12 13 14 15 16 17 18 19 20 21 22 23 24 25 26 27 28 29 30 31 32 33 34 35 36 37 38 39 40 41 42 43 44 45 46 47 48 49 50
110
ASUS43 KLOT 131808
RWRIL

ILLINOIS REGIONAL WEATHER ROUNDUP
NATIONAL WEATHER SERVICE CHICAGO/ROMEOVILLE IL
1200 PM CST SAT FEB 13 2016

NOTE: "FAIR" INDICATES FEW OR NO CLOUDS BELOW 12,000 FEET WITH NO
SIGNIFICANT WEATHER AND/OR OBSTRUCTIONS TO VISIBILITY.

* THESE STATIONS ARE NOT UNDER NWS QUALITY CONTROL. THEY ALSO MAY NOT
  REPORT WEATHER SUCH AS PRECIPITATION OR FOG.

ILZ001-002-007-009-015-016-024-131900-
NORTHWEST ILLINOIS

CITY           SKY/WX    TMP DP  RH WIND       PRES   REMARKS
MOLINE         SUNNY     15  -9  33 VRB7      30.62F WCI   5
6HR MIN TEMP:   4; 6HR MAX TEMP:  15;

STERLING*      SUNNY     16  -6  38 NW9       30.59F WCI   4
SAVANNA*       SUNNY     12  -8  40 W7        30.62F WCI   1
$$

ILZ003-004-008-010-011-017-018-131900-
NORTH CENTRAL ILLINOIS

CITY           SKY/WX    TMP DP  RH WIND       PRES   REMARKS
ROCKFORD       MOSUNNY   13  -6  42 NW8       30.62F WCI   2
6HR MIN TEMP:   2; 6HR MAX TEMP:  13;

FREEPORT*      SUNNY     10  -8  46 W9        30.61F WCI  -4
ROCHELLE*      SUNNY     12  -6  44 N3        30.60F
DE KALB*       SUNNY     12  -5  47 NW8       30.58F WCI   0
$$

ILZ005-006-012>014-019>023-131900-
NORTHEAST ILLINOIS

CITY           SKY/WX    TMP DP  RH WIND       PRES   REMARKS
CHICAGO-OHARE  MOSUNNY   13  -7  40 NW9       30.58F WCI   1
6HR MIN TEMP:   2; 6HR MAX TEMP:  13;

CHICAGO-MIDWAY MOSUNNY   14  -9  35 VRB7G17   30.59F WCI   4
6HR MIN TEMP:   4; 6HR MAX TEMP:  14;

AURORA         SUNNY     14  -4  44 NW9       30.60F WCI   2
6HR MIN TEMP:   2; 6HR MAX TEMP:  14;

LANSING*       SUNNY     15  -9  34 NW10      30.58F WCI   2
JOLIET*        SUNNY     16  -5  40 W9        30.60F WCI   4
WAUKEGAN       SUNNY     11  -6  46 NW8       30.56F WCI  -1
6HR MIN TEMP:   0; 6HR MAX TEMP:  11;

DUPAGE AIRPORT SUNNY     11  -6  46 W8        30.58F WCI  -1
6HR MIN TEMP:   2; 6HR MAX TEMP:  12;

KANKAKEE*      SUNNY     15  -6  38 NW8       30.60F WCI   4
WHEELING       SUNNY     12  -6  44 NW10      30.60S WCI  -1
6HR MIN TEMP:   2; 6HR MAX TEMP:  13;

MORRIS*        SUNNY     14  -6  41 NW6G18    30.57F WCI   5
ROMEOVILLE*    SUNNY     13  -7  40 NW9       30.59F WCI   1
NORTHERLY ISL    N/A     13  -9  37 N6          N/A  WCI   4
$$

LMZ740>746-131900-
SOUTHERN LAKE MICHIGAN

STATION/POSITION SKY/WX   TEMP    WIND        PRES    VSBY  WAVE
                          AIR SEA DIR/SP/G                  HT/PER
                          (F)     (DEG/KT/KT) (MB)    (MI)  (FT/S)
HARRISON CRIB              10     310/ 10/ 12   N/A
BURNHAM HARBOR             14     270/  9/ 11   N/A
CALUMET HARBOR             12     260/  7/ 10 1035.1S
BURNS HARBOR               11     330/  8/ 16 1035.9R
MICHIGAN CITY              12     280/ 17/ 19   N/A
$$

ILZ025>027-034>036-040-047-049-050-058-095>099-131900-
WEST-CENTRAL ILLINOIS

CITY           SKY/WX    TMP DP  RH WIND       PRES   REMARKS
QUINCY         SUNNY     12  -3  51 E3        30.63F
GALESBURG*     SUNNY     15  -5  40 N6        30.61F WCI   6
MACOMB*        SUNNY     16  -1  46 NW5       30.65F WCI   8
JACKSONVILLE*  SUNNY     19   1  46 CALM      30.64F
PITTSFIELD*    SUNNY     15  -2  47 CALM      30.63F
$$

ILZ028>032-037-038-041>044-048-051>054-059>061-131900-
CENTRAL ILLINOIS

CITY           SKY/WX    TMP DP  RH WIND       PRES   REMARKS
PONTIAC        SUNNY     15  -3  43 NW10      30.61F WCI   3
BLOOMINGTON    SUNNY     16  -4  40 N7        30.59F WCI   6
DECATUR        SUNNY     17  -3  41 N7        30.61F WCI   8
PEORIA         SUNNY     17  -7  34 NW6       30.62F WCI   9
6HR MIN TEMP:   4; 6HR MAX TEMP:  18;

LACON*         SUNNY     16  -8  34 NW8       30.61F WCI   5
LINCOLN*       SUNNY     17   0  46 CALM      30.63F
SPRINGFIELD    SUNNY     18  -4  37 VRB5      30.64F WCI  11
6HR MIN TEMP:   7; 6HR MAX TEMP:  18;

TAYLORVILLE    SUNNY     16  -2  45 NW3       30.63F
$$

ILZ033-039-045-046-055>057-062-063-131900-
EAST-CENTRAL ILLINOIS

CITY           SKY/WX    TMP DP  RH WIND       PRES   REMARKS
CHAMPAIGN      SUNNY     16  -4  41 NW10      30.60F WCI   4
RANTOUL*       SUNNY     16   1  51 N7        30.60F WCI   6
MATTOON        MIX PCPN  15  -2  46 NW7       30.60F WCI   5
PARIS*         SUNNY     16  -2  45 NW3       30.61F
$$

ILZ079-100>102-131900-
SOUTHWEST ILLINOIS

CITY           SKY/WX    TMP DP  RH WIND       PRES   REMARKS
ALTON          MOSUNNY   18   0  45 NW8       30.65F WCI   7
BELLEVILLE     SUNNY     22  -1  37 VRB5      30.63F WCI  15
CAHOKIA*       SUNNY     21  -3  35 NE6       30.64F WCI  13
SPARTA*        SUNNY     20   3  48 N8        30.64F WCI  10
$$

ILZ064>066-069>071-074>076-080>082-084>086-088>090-092>094-131900-
SOUTH-CENTRAL ILLINOIS

CITY           SKY/WX    TMP DP  RH WIND       PRES   REMARKS
CARBONDALE     SUNNY     22   3  44 N7        30.63F WCI  13
6HR MIN TEMP:  13; 6HR MAX TEMP:  23;

CAIRO*         SUNNY     24   7  47 NE9       30.62F WCI  14
EFFINGHAM*     SUNNY     18   4  54 NW9       30.64F WCI   7
MARION         MOSUNNY   23   3  42 N6        30.62F WCI  16
MT. VERNON     SUNNY     19   3  49 N7        30.63F WCI  10
CENTRALIA*     SUNNY     20   5  53 N9        30.62F WCI   9
SALEM*         SUNNY     20   3  48 N8        30.63F WCI  10
METROPOLIS*    SUNNY     24   7  46 N7        30.62F WCI  16
$$

ILZ067-068-072-073-078-083-087-091-131900-
SOUTHEAST ILLINOIS

CITY           SKY/WX    TMP DP  RH WIND       PRES   REMARKS
LAWRENCEVILLE  SUNNY     20  -2  38 NW8       30.63F WCI  10
FLORA*         SUNNY     21   0  39 N9        30.64F WCI  11
FAIRFIELD*     SUNNY     20   3  46 N6        30.62F WCI  13
HARRISBURG*    SUNNY     21   6  51 N9        30.63F WCI  11
ROBINSON*      SUNNY     18  -4  38 NW9       30.64F WCI   6
CARMI*         SUNNY     19   4  52 N10       30.62F WCI   8
$$

ABBREVIATIONS USED IN REMARKS
   TC - TEMPERATURE IN CELSIUS
  WCI - WIND CHILL INDEX
   HX - HEAT INDEX
  VSB - VISIBILITY
$$





USA.gov is the U.S. government's official web portal to all federal, state and local government web resources and services.